BEIDOU-3 M26 (58655 NORAD) Tracking and Keplerian Element Data

This shows tracking and keplerian element data for the satellite.

Feedback or suggestion? Click here.




ElementValue
Catalog58655
NameBEIDOU-3 M26
Epoch Orbit19
Epoch Day5.8469477
Epoch Year2024
RAAN92.7627
Inclination54.6471
Eccentricity0.0316732
Argument of Perigee68.9835
Mean Anonmoly87.0455
Mean Motion1.85607573
Decay Rate-3.7E-07
L11 58655U 23207B 24005.84694770 -.00000037 00000+0 00000+0 0 9998
L22 58655 54.6471 92.7627 0316732 68.9835 87.0455 1.85607573 193



Live tracking and technical data element details for BEIDOU-3 M26 (NORAD 58655). BEIDOU-3 M26 can be tracked NOW for your location showing map with azimuth and elevation plus other details from your city location.







IsCatalogInMostPopularTable: catalog: 58655, numindb: 24
Update: records affected: 1



GetName: 58655 BEIDOU-3 M26

Hit Count: updated at: Wed, 17 Apr 2024 01:43:58 GMT